This is the latest recevied weather packets stored in our database for station/object KE0PRS. If no packets are shown the sender has not sent any weather packets the latest 10 day(s).
| Time | Temp. | Humidity | Pressure | Rain* | Wind** | Luminosity | Snow |
|---|---|---|---|---|---|---|---|
| 1788101273 | 29.44° C | 45% | 1012.3 hPa | 0 mm | - | 70 W/m² | - |
| 1788100969 | 29.44° C | 45% | 1012.3 hPa | 0 mm | - | 262 W/m² | - |
| 1788100665 | 28.89° C | 46% | 1012.3 hPa | 0 mm | - | 261 W/m² | - |
| 1788100364 | 28.89° C | 46% | 1012.2 hPa | 0 mm | - | 227 W/m² | - |
| 1788100058 | 28.89° C | 46% | 1012.2 hPa | 0 mm | - | 210 W/m² | - |
| 1788099754 | 28.89° C | 47% | 1011.9 hPa | 0 mm | - | 207 W/m² | - |
| 1788099449 | 28.33° C | 47% | 1012.4 hPa | 0 mm | - | 200 W/m² | - |
| 1788099144 | 28.33° C | 47% | 1012.3 hPa | 0 mm | - | 103 W/m² | - |
| 1788098839 | 27.78° C | 48% | 1012.2 hPa | 0 mm | - | 210 W/m² | - |
| 1788098534 | 27.78° C | 49% | 1012.3 hPa | 0 mm | - | 114 W/m² | - |
| 1788098229 | 27.22° C | 49% | 1012.3 hPa | 0 mm | - | 147 W/m² | - |
| 1788097924 | 27.22° C | 50% | 1012.4 hPa | 0 mm | - | 135 W/m² | - |
| 1788097620 | 26.67° C | 51% | 1012.5 hPa | 0 mm | - | 193 W/m² | - |
| 1788097314 | 26.11° C | 51% | 1012.4 hPa | 0 mm | - | 106 W/m² | - |
| 1788097010 | 26.11° C | 52% | 1012.5 hPa | 0 mm | - | 71 W/m² | - |
| 1788096706 | 26.11° C | 52% | 1012.3 hPa | 0 mm | - | 91 W/m² | - |
| 1788096402 | 25.56° C | 52% | 1012.3 hPa | 0 mm | - | 101 W/m² | - |
| 1788096097 | 25.56° C | 53% | 1012.5 hPa | 0 mm | - | 58 W/m² | - |
| 1788095796 | 25.56° C | 53% | 1012.7 hPa | 0 mm | - | 49 W/m² | - |
| 1788095496 | 25.56° C | 53% | 1012.5 hPa | 0 mm | - | 42 W/m² | - |
| 1788095192 | 25.56° C | 53% | 1012.2 hPa | 0 mm | - | 49 W/m² | - |
| 1788094886 | 25° C | 54% | 1012.6 hPa | 0 mm | - | 49 W/m² | - |
| 1788094585 | 25° C | 54% | 1012.5 hPa | 0 mm | - | 52 W/m² | - |
| 1788094280 | 25° C | 54% | 1012.6 hPa | 0 mm | - | 48 W/m² | - |
| 1788093978 | 25° C | 54% | 1012.4 hPa | 0 mm | - | 43 W/m² | - |
* Rain latest hour (hover to see other rain measurements)
** Current wind speed in m/s (hover to see current wind gust speed)